Theta_e
319 318 318 318 317 314 313 310 308 305 302 297 295 298 298 296 295 294 293 293 292 292
319 318 318 318 317 314 310 307 306 303 297 294 297 296 295 294 293 293 293 292 292 291
318 318 318 316 312 309 307 305 301 294 295 296 296 295 294 293 293 292 292 291 291 291
317 316 314 311 308 307 306 302 297 296 294 294 293 293 293 291 291 290 290 291 290 289
312 311 308 307 306 306 301 298 295 293 294 292 292 292 290 290 289 289 288 288 289 288
309 308 306 304 303 302 298 295 293 294 293 292 291 290 290 289 288 288 288 288 288 287
306 305 303 299 298 297 296 294 294 293 292 291 290 289 289 288 288 288 287 287 287 287
303 301 299 296 296 295 295 294 293 292 292 291 290 288 288 288 288 287 287 287 287 287
299 297 294 293 293 294 293 293 292 291 290 290 288 283 283 284 288 287 287 286 287 287
294 292 292 292 293 292 292 292 291 290 289 289 289 283 282 283 287 287 287 287 287 286
290 291 292 292 292 292 292 291 290 289 289 288 286 282 282 282 288 287 287 287 287 286
293 291 291 290 291 291 290 290 289 288 287 287 287 281 281 283 287 286 286 287 287 285
292 291 290 290 290 290 290 289 288 287 287 280 286 280 281 283 286 285 285 286 286 282
291 291 290 290 289 289 289 288 287 286 286 286 285 285 280 281 284 284 282 283 284 284
Wind_Speed
13 9 8 9 7 7 6 6 8 8 8 9 6 5 5 4 5 5 6 7 7 6
11 10 8 9 9 6 8 8 9 10 10 6 6 6 4 5 5 5 6 6 6 6
11 10 9 10 10 11 10 10 10 10 8 6 6 5 5 4 6 6 5 5 7 7
11 11 11 11 11 11 11 11 10 8 7 6 6 5 5 5 6 7 7 7 7 7
13 13 13 12 12 12 12 10 10 8 7 7 6 6 6 6 6 7 7 7 8 7
14 14 14 13 12 12 11 11 8 8 7 7 6 5 5 5 5 6 7 7 7 7
14 14 13 13 12 11 10 9 9 8 8 6 5 4 4 5 5 6 5 6 6 6
15 14 14 12 11 11 9 9 8 8 7 6 4 6 8 6 6 6 6 5 5 4
15 14 13 12 11 10 10 9 8 7 6 5 5 6 5 9 7 7 6 7 6 6
14 13 12 11 10 10 9 9 8 7 6 5 7 3 4 7 8 7 7 7 7 6
14 13 12 11 10 9 8 8 7 6 6 4 7 3 4 8 9 6 7 7 8 7
13 13 12 11 10 9 8 7 6 6 5 3 7 4 4 10 7 6 7 7 7 7
12 12 11 11 9 8 7 7 6 6 5 5 3 7 4 8 7 7 7 8 8 7
11 10 10 10 8 7 7 7 6 6 5 4 2 6 3 6 8 7 8 8 7 6
Wind_Direction
192 192 191 187 162 179 155 140 133 111 103 99 109 84 52 44 19 20 3 2 356 335
183 190 180 158 160 137 131 131 128 109 107 118 97 68 47 42 16 3 2 355 352 335
178 171 150 144 136 138 132 130 119 118 124 117 95 70 32 25 30 360 2 351 345 342
153 142 139 136 134 138 128 120 124 127 114 106 89 64 48 30 17 354 353 352 348 343
139 136 134 134 132 128 124 120 117 128 118 104 88 66 42 18 3 354 355 349 343 345
139 137 132 128 126 123 121 123 144 119 112 100 85 66 37 13 2 359 349 344 337 338
136 133 127 123 124 122 130 128 117 113 107 107 90 60 17 5 357 347 348 333 327 336
129 126 123 121 125 127 129 121 121 122 119 112 94 37 0 350 343 343 330 316 322 343
129 125 123 128 129 130 129 129 132 130 125 121 86 78 32 344 328 336 323 325 333 329
130 129 133 135 137 136 137 138 135 132 131 112 99 103 16 341 303 322 331 323 326 337
137 141 143 142 139 138 142 143 143 134 127 122 99 87 356 318 286 312 322 317 322 324
148 145 146 144 144 143 145 146 144 141 135 135 113 84 359 316 311 330 320 320 317 338
148 148 150 145 144 146 151 146 145 137 131 78 124 118 19 337 321 329 335 322 321 118
145 147 144 144 146 153 154 150 151 153 146 161 86 112 47 354 321 352 327 320 323 328